Location: Melbourne
(37.8170°S, 144.9670°E)
Time: 10:37:42
(UTC+11:00)

ERBS - Visible Passes

Search period start: 21 December 2014 00:00
Search period end: 31 December 2014 00:00
Orbit: 459 x 480 km, 57.0° (Epoch: 19 December)

Date Brightness Start Highest point End Pass type
(mag) Time Alt. Az. Time Alt. Az. Time Alt. Az.
21 Dec 2.7 21:42:52 10° SW 21:46:37 72° NW 21:49:24 17° NNE visible
22 Dec 2.6 21:11:50 10° SW 21:15:36 87° SE 21:19:21 10° NE visible
23 Dec 5.3 22:20:44 10° WNW 22:21:28 10° WNW 22:22:11 10° NW visible
24 Dec 5.1 21:48:31 10° W 21:50:28 14° WNW 21:52:25 10° NNW visible
25 Dec 4.9 21:16:51 10° WSW 21:19:26 18° WNW 21:22:00 10° NNW visible
